Regional Weather Roundup
Issued by NWS

Home | Current Version | Previous Version | Text Only | Print | Product List | Glossary Off
Versions: 1 2 3 4 5 6 7 8 9 10 11 12 13 14 15 16 17 18 19 20 21 22 23 24 25 26 27 28 29 30 31 32 33 34 35 36 37 38 39 40 41 42 43 44 45 46 47 48 49 50

000
ASUS43 KFSD 092110
RWRSD

WEATHER ROUNDUP FOR SOUTH DAKOTA
NATIONAL WEATHER SERVICE SIOUX FALLS SD
300 PM CST FRI DEC 09 2016

NOTE: "FAIR" INDICATES FEW OR NO CLOUDS BELOW 12,000 FEET WITH NO
SIGNIFICANT WEATHER AND/OR OBSTRUCTIONS TO VISIBILITY.


SDZ001>005-009-010-012>017-092200-
NORTHWEST AND NORTH CENTRAL SOUTH DAKOTA

CITY           SKY/WX    TMP DP  RH WIND       PRES   REMARKS
BUFFALO          N/A      5  -3  69 E8        30.28F WCI  -8
FAITH            N/A      0  -5  79 N10       30.42S WCI -16
MOBRIDGE       CLOUDY     2  -5  72 N10       30.49S WCI -14
$$

SDZ012>016-024>037-041>051-057-063-072>074-092200-
SOUTHWEST AND SOUTH CENTRAL SOUTH DAKOTA

CITY           SKY/WX    TMP DP  RH WIND       PRES   REMARKS
RAPID CTY ARPT FLURRIES   3  -3  76 N7        30.34S WCI  -9
PIERRE         FLURRIES   6  -1  73 NE12      30.47R WCI  -9
CUSTER         CLOUDY    15   4  61 VRB5      30.05F WCI   8
ELLSWORTH AFB  FLURRIES   2  -3  77 N8        30.32  WCI -11
PHILIP         CLOUDY     7   1  76 NE9       30.44R WCI  -7
PINE RIDGE     CLOUDY     8   2  76 N5        30.30R WCI   0
SPEARFISH      FAIR       0  -4  85 CALM      30.25F
WINNER         CLOUDY    12   6  77 NE9       30.41R WCI   0
$$

SDZ004>011-016>023-039-040-092200-
NORTHEAST SOUTH DAKOTA

CITY           SKY/WX    TMP DP  RH WIND       PRES   REMARKS
ABERDEEN       CLOUDY     8  -3  61 N7        30.53F WCI  -3
WATERTOWN      CLOUDY     4  -2  76 N9        30.45F HAZE    WCI -10
BROOKINGS      FLURRIES   8   2  76 NW6       30.46F WCI  -2
SISSETON         N/A      6  -1  73 N12       30.52F WCI  -9
$$

SDZ017-020-022-023-036>040-048>070-092200-
SOUTHEAST SOUTH DAKOTA

CITY           SKY/WX    TMP DP  RH WIND       PRES   REMARKS
SIOUX FALLS    FLURRIES  15   6  67 N5        30.48F WCI   8
HURON          LGT SNOW   6   0  76 NE9       30.51F WCI  -8
CHAMBERLAIN    LGT SNOW  12   7  78 NE5       30.46R WCI   4
MITCHELL       LGT SNOW  11   5  77 NE8       30.50F WCI  -1
YANKTON        SUNNY     12   3  67 E3        30.48F
$$

ABBREVIATIONS USED IN REMARKS
   TC - TEMPERATURE IN CELSIUS
  WCI - WIND CHILL INDEX
   HX - HEAT INDEX
  VSB - VISIBILITY





USA.gov is the U.S. government's official web portal to all federal, state and local government web resources and services.